User: anonymous   Login
Location: Unspecified
(0.0000°N, 0.0000°E)
Time: 21:07:40
(UTC+00:00)
Language:

TBA - TO BE ASSIGNED - Orbit

View from above orbital plane
View from above orbital plane
View from above satellite
View from above satellite

Ground track
Ground track

The orbit is defined by the following mean orbital elements,

1 67581U          26145.40732574 +.00000000 +00000-0 +40615-3 0 00009
2 67581  97.2849 205.7705 0000892  94.0368 266.0977 15.33447227    08
Epoch (UTC): 25 May 2026 09:46:32
Eccentricity: 0.0000892
inclination: 97.2849°
perigee height: 465 km
apogee height: 466 km
right ascension of ascending node: 205.7705°
argument of perigee: 94.0368°
revolutions per day: 15.33447227
mean anomaly at epoch: 266.0977°

The dashed part of the orbit path shows where the satellite is in the earth's shadow,  

DLR